Tiempo cada hora Mazarrón

Hoy, 25 Octubre, Domingo

Tiempo Temperatura Precipitaciones Viento Presión Humedad
00:00 +15°C° 0 mm 1 mps 749 mmHg 73%
01:00 +15°C° 0 mm 1 mps 749 mmHg 73%
02:00 +14°C° 0 mm 1 mps 749 mmHg 73%
03:00 +14°C° 0 mm 2 mps 748 mmHg 72%
04:00 +14°C° 0 mm 1 mps 748 mmHg 73%
05:00 +13°C° 0 mm 1 mps 748 mmHg 73%
06:00 +13°C° 0 mm 1 mps 748 mmHg 74%
07:00 +15°C° 0 mm 1 mps 748 mmHg 63%
08:00 +19°C° 0 mm 1 mps 748 mmHg 53%
09:00 +21°C° 0 mm 1 mps 748 mmHg 42%
10:00 +21°C° 0 mm 2 mps 748 mmHg 37%
11:00 +24°C° 0 mm 3 mps 747 mmHg 32%
12:00 +25°C° 0 mm 3 mps 747 mmHg 27%
13:00 +25°C° 0 mm 4 mps 747 mmHg 29%
14:00 +25°C° 0 mm 5 mps 746 mmHg 31%
15:00 +24°C° 0 mm 6 mps 745 mmHg 33%
16:00 +23°C° 0 mm 5 mps 745 mmHg 40%
17:00 +21°C° 0 mm 5 mps 745 mmHg 47%
18:00 +19°C° 0 mm 4 mps 745 mmHg 53%
19:00 +19°C° 0 mm 4 mps 745 mmHg 51%
20:00 +19°C° 0 mm 4 mps 745 mmHg 49%
21:00 +18°C° 0 mm 3 mps 745 mmHg 47%
22:00 +18°C° 0 mm 3 mps 745 mmHg 49%
23:00 +17°C° 0 mm 3 mps 745 mmHg 51%

Mañana, 26 Octubre, Lunes

Tiempo Temperatura Precipitaciones Viento Presión Humedad
00:00 +17°C° 0 mm 2 mps 744 mmHg 53%
01:00 +17°C° 0 mm 3 mps 744 mmHg 55%
02:00 +17°C° 0 mm 3 mps 744 mmHg 58%
03:00 +18°C° 0 mm 3 mps 744 mmHg 60%
04:00 +18°C° 0 mm 3 mps 744 mmHg 61%
05:00 +18°C° 0 mm 3 mps 744 mmHg 62%
06:00 +18°C° 0 mm 3 mps 744 mmHg 63%
07:00 +18°C° 0 mm 4 mps 745 mmHg 55%
08:00 +17°C° 0 mm 5 mps 745 mmHg 48%
09:00 +19°C° 0 mm 6 mps 746 mmHg 41%
10:00 +19°C° 0 mm 6 mps 746 mmHg 37%
11:00 +20°C° 0 mm 6 mps 746 mmHg 32%
12:00 +20°C° 0 mm 6 mps 746 mmHg 28%
13:00 +20°C° 0 mm 6 mps 746 mmHg 27%
14:00 +21°C° 0 mm 6 mps 746 mmHg 26%
15:00 +21°C° 0 mm 6 mps 746 mmHg 25%
16:00 +20°C° 0 mm 5 mps 746 mmHg 27%
17:00 +17°C° 0 mm 5 mps 747 mmHg 29%
18:00 +17°C° 0 mm 4 mps 747 mmHg 32%
19:00 +15°C° 0 mm 4 mps 748 mmHg 34%
20:00 +14°C° 0 mm 4 mps 748 mmHg 36%
21:00 +14°C° 0 mm 4 mps 748 mmHg 38%
22:00 +13°C° 0 mm 4 mps 749 mmHg 39%
23:00 +13°C° 0 mm 4 mps 749 mmHg 41%

Pasado mañana, 27 Octubre, Martes

Tiempo Temperatura Precipitaciones Viento Presión Humedad
00:00 +12°C° 0 mm 3 mps 749 mmHg 43%
01:00 +11°C° 0 mm 3 mps 748 mmHg 46%
02:00 +12°C° 0 mm 2 mps 748 mmHg 48%
03:00 +11°C° 0 mm 1 mps 748 mmHg 51%
04:00 +11°C° 0 mm 1 mps 748 mmHg 52%
05:00 +10°C° 0 mm 1 mps 748 mmHg 53%
06:00 +10°C° 0 mm 1 mps 748 mmHg 54%
07:00 +12°C° 0 mm 1 mps 748 mmHg 48%
08:00 +14°C° 0 mm 1 mps 748 mmHg 42%
09:00 +16°C° 0 mm 2 mps 749 mmHg 36%
10:00 +17°C° 0 mm 2 mps 749 mmHg 33%
11:00 +19°C° 0 mm 3 mps 748 mmHg 31%
12:00 +20°C° 0 mm 4 mps 748 mmHg 29%
13:00 +20°C° 0 mm 4 mps 748 mmHg 32%
14:00 +20°C° 0 mm 4 mps 747 mmHg 35%
15:00 +20°C° 0 mm 5 mps 747 mmHg 38%
16:00 +18°C° 0 mm 4 mps 747 mmHg 46%
17:00 +17°C° 0 mm 3 mps 747 mmHg 54%
18:00 +16°C° 0 mm 3 mps 747 mmHg 62%
19:00 +14°C° 0 mm 3 mps 747 mmHg 63%
20:00 +15°C° 0 mm 2 mps 747 mmHg 64%
21:00 +15°C° 0 mm 2 mps 748 mmHg 65%
22:00 +14°C° 0 mm 2 mps 748 mmHg 62%
23:00 +14°C° 0 mm 2 mps 747 mmHg 60%

28 Octubre, Miércoles

Tiempo Temperatura Precipitaciones Viento Presión Humedad
00:00 +14°C° 0 mm 2 mps 747 mmHg 57%
01:00 +14°C° 0 mm 1 mps 747 mmHg 54%
02:00 +14°C° 0 mm 1 mps 747 mmHg 51%
03:00 +13°C° 0 mm 1 mps 747 mmHg 48%
04:00 +13°C° 0 mm 1 mps 747 mmHg 48%
05:00 +13°C° 0 mm 1 mps 747 mmHg 47%
06:00 +13°C° 0 mm 1 mps 747 mmHg 47%
07:00 +15°C° 0 mm 1 mps 748 mmHg 43%
08:00 +18°C° 0 mm 1 mps 748 mmHg 38%
09:00 +20°C° 0 mm 1 mps 749 mmHg 34%
10:00 +22°C° 0 mm 1 mps 748 mmHg 32%
11:00 +23°C° 0 mm 1 mps 748 mmHg 30%
12:00 +24°C° 0 mm 1 mps 748 mmHg 28%
13:00 +24°C° 0 mm 2 mps 748 mmHg 29%
14:00 +25°C° 0 mm 2 mps 748 mmHg 30%
15:00 +25°C° 0 mm 3 mps 748 mmHg 30%
16:00 +22°C° 0 mm 3 mps 748 mmHg 38%
17:00 +20°C° 0 mm 3 mps 748 mmHg 45%
18:00 +18°C° 0 mm 3 mps 748 mmHg 53%
19:00 +18°C° 0 mm 2 mps 748 mmHg 52%
20:00 +18°C° 0 mm 2 mps 749 mmHg 52%
21:00 +18°C° 0 mm 1 mps 749 mmHg 51%
22:00 +18°C° 0 mm 1 mps 749 mmHg 52%
23:00 +18°C° 0 mm 1 mps 749 mmHg 53%

29 Octubre, Jueves

Tiempo Temperatura Precipitaciones Viento Presión Humedad
00:00 +16°C° 0 mm 1 mps 749 mmHg 55%
01:00 +16°C° 0 mm 1 mps 749 mmHg 56%
02:00 +15°C° 0 mm 1 mps 749 mmHg 58%
03:00 +15°C° 0 mm 1 mps 748 mmHg 60%
04:00 +15°C° 0 mm 1 mps 749 mmHg 62%
05:00 +15°C° 0 mm 1 mps 749 mmHg 64%
06:00 +15°C° 0 mm 1 mps 749 mmHg 66%
07:00 +18°C° 0 mm 1 mps 749 mmHg 60%
08:00 +20°C° 0 mm 1 mps 750 mmHg 55%
09:00 +22°C° 0 mm 1 mps 750 mmHg 49%
10:00 +24°C° 0 mm 1 mps 750 mmHg 46%
11:00 +25°C° 0 mm 2 mps 750 mmHg 42%
12:00 +26°C° 0 mm 2 mps 750 mmHg 39%
13:00 +26°C° 0 mm 2 mps 750 mmHg 38%
14:00 +25°C° 0 mm 2 mps 750 mmHg 38%
15:00 +25°C° 0 mm 2 mps 749 mmHg 38%
16:00 +23°C° 0 mm 2 mps 749 mmHg 44%
17:00 +20°C° 0 mm 2 mps 750 mmHg 51%
18:00 +19°C° 0 mm 1 mps 750 mmHg 57%
19:00 +19°C° 0 mm 1 mps 750 mmHg 61%
20:00 +18°C° 0 mm 1 mps 750 mmHg 65%
21:00 +16°C° 0 mm 1 mps 750 mmHg 68%
22:00 +16°C° 0 mm 1 mps 750 mmHg 72%
23:00 +16°C° 0 mm 2 mps 750 mmHg 75%

30 Octubre, Viernes

Tiempo Temperatura Precipitaciones Viento Presión Humedad
00:00 +16°C° 0 mm 2 mps 750 mmHg 79%
01:00 +15°C° 0 mm 2 mps 750 mmHg 80%
02:00 +15°C° 0 mm 2 mps 750 mmHg 82%
03:00 +15°C° 0 mm 2 mps 750 mmHg 83%
04:00 +14°C° 0 mm 2 mps 749 mmHg 82%
05:00 +14°C° 0 mm 2 mps 749 mmHg 82%
06:00 +14°C° 0 mm 2 mps 749 mmHg 81%
07:00 +16°C° 0 mm 2 mps 749 mmHg 73%
08:00 +18°C° 0 mm 2 mps 750 mmHg 64%
09:00 +20°C° 0 mm 2 mps 750 mmHg 55%
10:00 +21°C° 0 mm 2 mps 750 mmHg 50%
11:00 +24°C° 0 mm 3 mps 750 mmHg 46%
12:00 +25°C° 0 mm 3 mps 749 mmHg 41%
13:00 +25°C° 0 mm 3 mps 749 mmHg 42%
14:00 +25°C° 0 mm 3 mps 749 mmHg 43%
15:00 +25°C° 0 mm 3 mps 748 mmHg 44%
16:00 +22°C° 0 mm 3 mps 748 mmHg 54%
17:00 +20°C° 0 mm 2 mps 748 mmHg 65%
18:00 +18°C° 0 mm 2 mps 748 mmHg 75%
19:00 +18°C° 0 mm 2 mps 748 mmHg 77%
20:00 +17°C° 0 mm 2 mps 749 mmHg 80%
21:00 +18°C° 0 mm 1 mps 749 mmHg 82%
22:00 +16°C° 0 mm 1 mps 749 mmHg 83%
23:00 +16°C° 0 mm 1 mps 748 mmHg 83%
Mostrar más

Necesitamos Su Consentimiento

Meteoprog y nuestros Proveedores de Servicios pueden almacenar y acceder a sus datos personales como cookies, identificadores de dispositivo u otras tecnologías similares de su dispositivo y procesar dichos datos para personalizar contenido y anuncios, además de ofrecer funciones de redes sociales y analizar el tráfico.

  • Almacenar y/o acceder a información en su dispositivo

    Se puede almacenar o acceder a cookies, identificadores de dispositivo u otra información de su dispositivo para los fines anteriormente indicados.

  • Anuncios y contenido personalizados, medición de anuncios y contenido, percepciones del público, y desarrollo de productos

    Los anuncios y el contenido pueden personalizarse en base a su perfil. Se pueden añadir más datos para personalizar mejor los anuncios y contenidos. Se puede medir el rendimiento de los anuncios y contenidos. Se puede obtener la percepción sobre el público que ha visto los anuncios y contenidos. Dichos datos pueden usarse para desarrollar o mejorar la experiencia del usuario, sistemas y software.

Al hacer clic en ‘Estoy De Acuerdo’ usted permitirá el uso de las cookies, identificadores de dispositivo, balizas web u otras tecnologías similares indicadas. Su configuración puede cambiarse desde el navegador de su dispositivo.

Para ciertos fines, los intereses legítimos pueden ser considerados por encima del consentimiento. Puede leer más sobre ello en nuestra Política de Privacidad y Cookies.